| time (UTC) | temp C | wind direction | speed KPH | gust KPH | rain 1hr cm | rain 24hr cm | rain mn cm | humidity % | barometer mb |
| 20260502230047 | 7 | 315 | 6.4 | 14.5 | 0.00 | 0.00 | 0.00 | 51 | 1016.1 |
| 20260502224545 | 7 | 302 | 6.4 | 14.5 | 0.00 | 0.00 | 0.00 | 51 | 1016.0 |
| 20260502223056 | 7 | 298 | 4.8 | 17.7 | 0.00 | 0.00 | 0.00 | 50 | 1016.0 |
| 20260502221548 | 7 | 289 | 6.4 | 19.3 | 0.00 | 0.00 | 0.00 | 50 | 1016.1 |
| 20260502220059 | 7 | 298 | 8.0 | 19.3 | 0.00 | 0.00 | 0.00 | 50 | 1015.9 |
| 20260502214605 | 7 | 311 | 4.8 | 14.5 | 0.00 | 0.00 | 0.00 | 50 | 1016.1 |
| 20260502213104 | 7 | 309 | 9.7 | 22.5 | 0.00 | 0.00 | 0.00 | 48 | 1016.1 |
| 20260502211557 | 7 | 300 | 8.0 | 19.3 | 0.00 | 0.00 | 0.00 | 50 | 1016.1 |
| 20260502210048 | 8 | 305 | 12.9 | 24.1 | 0.00 | 0.00 | 0.00 | 47 | 1016.2 |
| 20260502204543 | 8 | 303 | 9.7 | 19.3 | 0.00 | 0.00 | 0.00 | 52 | 1016.2 |
| 20260502203109 | 7 | 314 | 8.0 | 20.9 | 0.00 | 0.00 | 0.00 | 50 | 1016.3 |
| 20260502201547 | 7 | 296 | 11.3 | 22.5 | 0.00 | 0.00 | 0.00 | 49 | 1016.5 |
| 20260502200054 | 7 | 253 | 8.0 | 22.5 | 0.00 | 0.00 | 0.00 | 49 | 1016.6 |
| 20260502194544 | 7 | 318 | 9.7 | 32.2 | 0.00 | 0.00 | 0.00 | 47 | 1016.8 |
| 20260502193047 | 7 | 313 | 9.7 | 22.5 | 0.00 | 0.00 | 0.00 | 49 | 1016.8 |
| 20260502191547 | 8 | 290 | 8.0 | 24.1 | 0.00 | 0.00 | 0.00 | 47 | 1017.0 |
| 20260502190049 | 7 | 312 | 17.7 | 29.0 | 0.00 | 0.00 | 0.00 | 47 | 1017.1 |
| 20260502184547 | 8 | 311 | 12.9 | 22.5 | 0.00 | 0.00 | 0.00 | 49 | 1017.1 |
| 20260502183047 | 7 | 312 | 4.8 | 25.7 | 0.00 | 0.00 | 0.00 | 46 | 1017.1 |
| 20260502181549 | 7 | 308 | 14.5 | 27.4 | 0.00 | 0.00 | 0.00 | 46 | 1017.4 |
| 20260502163102 | 7 | 265 | 6.4 | 20.9 | 0.00 | 0.00 | 0.00 | 48 | 1018.0 |
| 20260502161604 | 6 | 329 | 11.3 | 20.9 | 0.00 | 0.00 | 0.00 | 53 | 1018.1 |
| 20260502151555 | 6 | 298 | 11.3 | 19.3 | 0.00 | 0.00 | 0.00 | 52 | 1018.0 |
| 20260502123109 | 2 | 313 | 8.0 | 16.1 | 0.00 | 0.00 | 0.00 | 72 | 1017.9 |
| 20260502121554 | 2 | 338 | 8.0 | 17.7 | 0.00 | 0.00 | 0.00 | 75 | 1018.0 |
| 20260502120110 | 2 | 294 | 9.7 | 17.7 | 0.00 | 0.00 | 0.00 | 76 | 1017.8 |
| 20260502114543 | 1 | 360 | 8.0 | 16.1 | 0.00 | 0.00 | 0.00 | 77 | 1017.9 |
| 20260502113054 | 1 | 317 | 6.4 | 14.5 | 0.00 | 0.00 | 0.00 | 80 | 1017.7 |
| 20260502111547 | 0 | 311 | 3.2 | 11.3 | 0.00 | 0.00 | 0.00 | 82 | 1017.6 |
| 20260502110044 | 0 | 315 | 4.8 | 8.0 | 0.00 | 0.00 | 0.00 | 82 | 1017.4 |
| 20260502104546 | 0 | 304 | 4.8 | 8.0 | 0.00 | 0.00 | 0.00 | 81 | 1017.5 |
| 20260502103045 | 0 | 302 | 3.2 | 6.4 | 0.00 | 0.00 | 0.00 | 80 | 1017.5 |
| 20260502101546 | 0 | 306 | 3.2 | 6.4 | 0.00 | 0.00 | 0.00 | 79 | 1017.5 |
| 20260502080108 | 2 | 305 | 4.8 | 11.3 | 0.00 | 0.00 | 0.00 | 70 | 1016.7 |
| 20260502070101 | 3 | 287 | 4.8 | 12.9 | 0.00 | 0.00 | 0.00 | 67 | 1016.6 |
| 20260502064550 | 3 | 350 | 6.4 | 19.3 | 0.00 | 0.00 | 0.00 | 66 | 1016.7 |
| 20260502063045 | 3 | 327 | 8.0 | 14.5 | 0.00 | 0.00 | 0.00 | 67 | 1016.8 |
| 20260502061547 | 3 | 323 | 6.4 | 12.9 | 0.00 | 0.00 | 0.00 | 69 | 1016.9 |
| 20260502060052 | 3 | 321 | 4.8 | 11.3 | 0.00 | 0.00 | 0.00 | 68 | 1016.9 |
| 20260502054551 | 3 | 313 | 3.2 | 8.0 | 0.00 | 0.00 | 0.00 | 68 | 1017.1 |
| 20260502053053 | 3 | 317 | 6.4 | 14.5 | 0.00 | 0.00 | 0.00 | 66 | 1017.0 |
| 20260502051600 | 3 | 343 | 6.4 | 16.1 | 0.00 | 0.00 | 0.00 | 66 | 1017.0 |
| 20260502050047 | 4 | 326 | 8.0 | 17.7 | 0.00 | 0.00 | 0.00 | 67 | 1017.0 |
| 20260502044546 | 4 | 301 | 8.0 | 20.9 | 0.00 | 0.00 | 0.00 | 67 | 1016.9 |
| 20260502043048 | 4 | 329 | 6.4 | 24.1 | 0.00 | 0.00 | 0.00 | 68 | 1016.7 |
| 20260502041545 | 4 | 334 | 11.3 | 17.7 | 0.00 | 0.00 | 0.00 | 67 | 1016.6 |
| 20260502034547 | 3 | 326 | 6.4 | 14.5 | 0.00 | 0.00 | 0.00 | 72 | 1016.3 |
| 20260502033048 | 3 | 332 | 4.8 | 12.9 | 0.00 | 0.00 | 0.00 | 75 | 1016.4 |
| 20260502031546 | 3 | 307 | 6.4 | 14.5 | 0.00 | 0.00 | 0.00 | 75 | 1016.4 |
| 20260502030047 | 3 | 0 | 0.0 | 0.0 | 0.00 | 0.00 | 0.00 | 73 | 1016.1 |
| 20260502024544 | 4 | 313 | 0.0 | 4.8 | 0.00 | 0.00 | 0.00 | 73 | 1016.2 |
| 20260502023045 | 4 | 313 | 1.6 | 6.4 | 0.00 | 0.00 | 0.00 | 72 | 1016.1 |
| 20260502021544 | 4 | 336 | 4.8 | 16.1 | 0.00 | 0.00 | 0.00 | 72 | 1016.2 |
| 20260502020047 | 5 | 338 | 8.0 | 22.5 | 0.00 | 0.00 | 0.00 | 71 | 1016.2 |
| 20260502014545 | 5 | 293 | 8.0 | 20.9 | 0.00 | 0.00 | 0.00 | 71 | 1016.0 |
| 20260502013045 | 5 | 307 | 9.7 | 20.9 | 0.00 | 0.00 | 0.00 | 70 | 1015.9 |
| 20260502011546 | 5 | 308 | 11.3 | 20.9 | 0.00 | 0.00 | 0.00 | 71 | 1015.8 |
| 20260502010052 | 5 | 333 | 9.7 | 22.5 | 0.00 | 0.00 | 0.00 | 72 | 1015.7 |
| 20260502004546 | 5 | 310 | 6.4 | 17.7 | 0.00 | 0.00 | 0.00 | 71 | 1015.6 |
| 20260502003050 | 5 | 338 | 4.8 | 14.5 | 0.00 | 0.00 | 0.00 | 71 | 1015.6 |
| 20260502001553 | 5 | 329 | 6.4 | 16.1 | 0.00 | 0.00 | 0.00 | 69 | 1015.5 |
| 20260502000049 | 6 | 311 | 4.8 | 20.9 | 0.00 | 0.00 | 0.00 | 69 | 1015.3 |
| 20260501234547 | 6 | 329 | 8.0 | 17.7 | 0.00 | 0.00 | 0.00 | 68 | 1015.3 |
| 20260501233048 | 6 | 318 | 9.7 | 22.5 | 0.00 | 0.00 | 0.00 | 67 | 1015.1 |
| 20260501231554 | 6 | 324 | 9.7 | 24.1 | 0.00 | 0.00 | 0.00 | 66 | 1015.1 |